Starlink 35171

operational
NORAD ID: 65605 Int'l Des: 2025-207 Owner: SPXS Country: US Constellation: starlink
NOTLE

Über Starlink 35171

Beschreibung wird geladen...

Live-Position

3D-Globus wird geladen...

Nächste Überflüge

Höhenverlauf

Altitude vs Time

uPlot chart will show altitude changes over time

Zweizeiliger Elementsatz

1 65605U 25207P 25308.61117477 .00063070 00000-0 16058-2 0 9998
2 65605 97.6024 12.9333 0002495 20.0605 340.0737 15.39346670 9126
Epoch: 4. Nov. 2025 • Age: 10 hours

Aktueller Status

Höhe 460.0 km
Geschwindigkeit 7.64 km/s
Subsatellitenpunkt 70.20°N, 163.03°E
Startdatum 13. Sept. 2025
Alter 0.1 years
Typ internet

Technische Details

Klassifizierung Payload
Masse 575.00 kg
Trockenmasse 530.00 kg
Gesamtmasse 575.00 kg
Länge 0.30 m
Durchmesser 4.10 m
Spannweite 29.00 m
Form Box + pan
Hersteller SPXS
Bus-Typ Starlink V2MO
Phasenstatus In Orbit
Besitzer/Staat SPXS/US

Große Konstellationen

Loading constellations...